Location: Poughquag
(41.6090°N, 73.6820°W)
Time: 09:41:20
(UTC-05:00)

SR - Pass Details

Date: 08 December 2023
Orbit: 574 x 868 km, 66.7° (Epoch: 25 February)

Event Time Altitude Azimuth Distance (km) Brightness Sun altitude
Rises 12:31:30 0° 268° (W) 3,346 ? 24.8°
Reaches altitude 10° 12:35:12 10° 293° (WNW) 2,463 ? 24.7°
Maximum altitude 12:38:10 14° 325° (NW) 2,203 ? 24.6°
Drops below altitude 10° 12:41:12 10° 356° (N) 2,513 ? 24.4°
Sets 12:45:03 0° 21° (NNE) 3,463 ? 24.2°
